Soldotna, AK

5:31 PM AKDT on June 24, 2017 (GMT -0800)
Soldotna

Weather History for PASX - October, 2011

Change the Weather History Date:

Monday, October 24, 2011

  Actual Average Record
Temperature  
Mean Temperature 42 °F -  
Max Temperature 48 °F 37 °F 49 °F (1980)
Min Temperature 35 °F 22 °F -5 °F (1966)
Degree Days  
Heating Degree Days 24    
Moisture  
Dew Point 36 °F    
Average Humidity 87    
Maximum Humidity 93    
Minimum Humidity 66    
Precipitation  
Precipitation 0.00 in - - ()
Sea Level Pressure  
Sea Level Pressure 29.51 in    
Wind  
Wind Speed 4 mph (ESE)    
Max Wind Speed 9 mph    
Max Gust Speed -    
Visibility 10 miles    
Events      
Averages and records for this station are not official NWS values.
T = Trace of Precipitation, MM = Missing Value Source: NWS Daily Summary

Daily Weather History Graph

Daily Weather History Graph

Search for Another Location

Airport or City:

Trip Planner

Search our weather history database for the weather conditions in past years. The results will help you decide how hot, cold, wet, or windy it might be!

Date:

Astronomy

Oct. 24, 2011 Rise Set
Actual Time 9:07 AM AKDT 6:27 PM AKDT
Civil Twilight 8:23 AM AKDT 7:12 PM AKDT
Nautical Twilight 7:33 AM AKDT 8:01 PM AKDT
Astronomical Twilight 6:45 AM AKDT 8:50 PM AKDT
Moon 6:11 AM AKDT (10/24) 5:16 PM AKDT (10/24)
Length of Visible Light 10h 48m
Length of Day
9h 20m
Waning Crescent, 6% of the Moon is Illuminated
Oct 24
Waning Crescent
Oct 26
New
Nov 2
First Quarter
Nov 10
Full
Nov 18
Last Quarter

Hourly Weather History & Observations

Time (AKDT) Temp. Windchill Dew Point Humidity Pressure Visibility Wind Dir Wind Speed Gust Speed Precip Events Conditions
12:16 AM 35.6 °F - 28.4 °F 75% 29.59 in - Calm Calm - N/A   Overcast
12:36 AM 37.4 °F 30.8 °F 30.2 °F 75% 29.60 in - SSE 9.2 mph - N/A   Overcast
12:56 AM 39.2 °F 35.0 °F 33.8 °F 81% 29.60 in 9.0 mi SSE 5.8 mph - N/A   Overcast
1:16 AM 39.2 °F 37.0 °F 35.6 °F 87% 29.59 in 10.0 mi SE 3.5 mph - N/A   Overcast
1:36 AM 39.2 °F 37.0 °F 35.6 °F 87% 29.58 in 8.0 mi SSW 3.5 mph - N/A   Overcast
1:56 AM 39.2 °F - 35.6 °F 87% 29.58 in 6.0 mi Calm Calm - N/A   Overcast
2:16 AM 39.2 °F 34.2 °F 35.6 °F 87% 29.58 in 9.0 mi ESE 6.9 mph - N/A   Overcast
2:36 AM 39.2 °F 33.6 °F 35.6 °F 87% 29.57 in 10.0 mi ESE 8.1 mph - N/A   Overcast
2:56 AM 39.2 °F - 35.6 °F 87% 29.57 in 8.0 mi Calm Calm - N/A   Overcast
3:16 AM 39.2 °F - 35.6 °F 87% 29.57 in 9.0 mi Calm Calm - N/A   Overcast
3:36 AM 37.4 °F 34.9 °F 35.6 °F 93% 29.57 in 10.0 mi ESE 3.5 mph - N/A   Overcast
3:56 AM 37.4 °F 32.8 °F 35.6 °F 93% 29.57 in 10.0 mi SSE 5.8 mph - N/A   Overcast
4:16 AM 39.2 °F 37.0 °F 35.6 °F 87% 29.57 in 10.0 mi SE 3.5 mph - N/A   Overcast
4:36 AM 39.2 °F 37.0 °F 37.4 °F 93% 29.57 in 10.0 mi SE 3.5 mph - N/A   Overcast
4:56 AM 39.2 °F - 37.4 °F 93% 29.57 in 10.0 mi Calm Calm - N/A   Overcast
5:16 AM 39.2 °F 35.9 °F 37.4 °F 93% 29.57 in 10.0 mi East 4.6 mph - N/A   Overcast
5:36 AM 37.4 °F 32.8 °F 35.6 °F 93% 29.57 in 10.0 mi ESE 5.8 mph - N/A   Mostly Cloudy
5:56 AM 41.0 °F 38.0 °F 37.4 °F 87% 29.57 in 10.0 mi South 4.6 mph - N/A   Mostly Cloudy
6:16 AM 39.2 °F 37.0 °F 35.6 °F 87% 29.57 in 10.0 mi SE 3.5 mph - N/A   Overcast
6:36 AM 39.2 °F 35.9 °F 37.4 °F 93% 29.57 in 10.0 mi SE 4.6 mph - N/A   Overcast
6:56 AM 37.4 °F 32.1 °F 35.6 °F 93% 29.57 in 10.0 mi ESE 6.9 mph - N/A   Mostly Cloudy
7:16 AM 37.4 °F 33.8 °F 35.6 °F 93% 29.57 in 10.0 mi SE 4.6 mph - N/A   Overcast
7:36 AM 39.2 °F 35.9 °F 37.4 °F 93% 29.56 in 10.0 mi SE 4.6 mph - N/A   Mostly Cloudy
7:56 AM 37.4 °F 34.9 °F 35.6 °F 93% 29.56 in 10.0 mi ESE 3.5 mph - N/A   Mostly Cloudy
8:16 AM 35.6 °F 32.8 °F 33.8 °F 93% 29.56 in 10.0 mi ESE 3.5 mph - N/A   Overcast
8:36 AM 37.4 °F - 33.8 °F 87% 29.56 in 10.0 mi Calm Calm - N/A   Overcast
8:56 AM 37.4 °F 32.1 °F 33.8 °F 87% 29.55 in 10.0 mi ESE 6.9 mph - N/A   Mostly Cloudy
9:16 AM 37.4 °F 32.8 °F 35.6 °F 93% 29.55 in 10.0 mi East 5.8 mph - N/A   Mostly Cloudy
9:36 AM 37.4 °F 33.8 °F 35.6 °F 93% 29.55 in 10.0 mi ESE 4.6 mph - N/A   Overcast
9:56 AM 37.4 °F - 35.6 °F 93% 29.54 in 10.0 mi Calm Calm - N/A   Overcast
10:16 AM 37.4 °F - 35.6 °F 93% 29.54 in 10.0 mi Calm Calm - N/A   Overcast
10:36 AM 37.4 °F 34.9 °F 35.6 °F 93% 29.54 in 10.0 mi East 3.5 mph - N/A   Mostly Cloudy
10:56 AM 37.4 °F 34.9 °F 35.6 °F 93% 29.53 in 10.0 mi East 3.5 mph - N/A   Scattered Clouds
11:16 AM 37.4 °F - 35.6 °F 93% 29.53 in 10.0 mi Calm Calm - N/A   Mostly Cloudy
11:36 AM 39.2 °F 35.9 °F 37.4 °F 93% 29.53 in 10.0 mi East 4.6 mph - N/A   Overcast
11:56 AM 39.2 °F 33.6 °F 35.6 °F 87% 29.53 in 10.0 mi ESE 8.1 mph - N/A   Overcast
12:16 PM 39.2 °F - 37.4 °F 93% 29.51 in 8.0 mi Calm Calm - N/A   Overcast
12:36 PM 39.2 °F 37.0 °F 37.4 °F 93% 29.50 in 10.0 mi ESE 3.5 mph - N/A   Overcast
12:56 PM 39.2 °F 35.9 °F 37.4 °F 93% 29.50 in 10.0 mi ESE 4.6 mph - N/A   Mostly Cloudy
1:16 PM 39.2 °F 35.9 °F 37.4 °F 93% 29.49 in 10.0 mi ESE 4.6 mph - N/A   Overcast
1:36 PM 41.0 °F 38.0 °F 37.4 °F 87% 29.48 in 10.0 mi ESE 4.6 mph - N/A   Overcast
1:56 PM 41.0 °F 37.1 °F 39.2 °F 93% 29.47 in 10.0 mi East 5.8 mph - N/A   Overcast
2:16 PM 41.0 °F 37.1 °F 37.4 °F 87% 29.46 in 10.0 mi East 5.8 mph - N/A   Overcast
2:36 PM 42.8 °F 39.3 °F 37.4 °F 81% 29.46 in 10.0 mi ESE 5.8 mph - N/A   Overcast
2:56 PM 42.8 °F 39.3 °F 39.2 °F 87% 29.45 in 10.0 mi East 5.8 mph - N/A   Overcast
3:16 PM 42.8 °F 40.1 °F 39.2 °F 87% 29.44 in 10.0 mi East 4.6 mph - N/A   Overcast
3:36 PM 42.8 °F 39.3 °F 39.2 °F 87% 29.44 in 10.0 mi East 5.8 mph - N/A   Overcast
3:56 PM 42.8 °F 39.3 °F 39.2 °F 87% 29.43 in 10.0 mi ESE 5.8 mph - N/A   Overcast
4:16 PM 42.8 °F 39.3 °F 39.2 °F 87% 29.42 in 10.0 mi ESE 5.8 mph - N/A   Overcast
4:36 PM 44.6 °F 41.4 °F 37.4 °F 76% 29.42 in 10.0 mi SE 5.8 mph - N/A   Overcast
4:56 PM 46.4 °F 44.3 °F 37.4 °F 71% 29.41 in 10.0 mi SE 4.6 mph - N/A   Overcast
5:16 PM 44.6 °F 42.2 °F 37.4 °F 76% 29.40 in 10.0 mi ESE 4.6 mph - N/A   Overcast
5:36 PM 44.6 °F 42.2 °F 37.4 °F 76% 29.39 in 10.0 mi ESE 4.6 mph - N/A   Overcast
5:56 PM 44.6 °F 42.2 °F 37.4 °F 76% 29.38 in 10.0 mi East 4.6 mph - N/A   Overcast
6:16 PM 42.8 °F 40.1 °F 37.4 °F 81% 29.38 in 10.0 mi East 4.6 mph - N/A   Overcast
6:36 PM 44.6 °F 40.7 °F 37.4 °F 76% 29.37 in 10.0 mi ESE 6.9 mph - N/A   Overcast
6:56 PM 48.2 °F - 37.4 °F 66% 29.37 in 10.0 mi SE 9.2 mph - N/A   Overcast
7:16 PM 44.6 °F 40.2 °F 37.4 °F 76% 29.36 in 10.0 mi ESE 8.1 mph - N/A   Overcast
7:36 PM 46.4 °F 42.9 °F 37.4 °F 71% 29.36 in 10.0 mi ESE 6.9 mph - N/A   Overcast
7:56 PM 44.6 °F 40.7 °F 37.4 °F 76% 29.36 in 10.0 mi ESE 6.9 mph - N/A   Overcast
8:16 PM 46.4 °F 42.9 °F 37.4 °F 71% 29.35 in 10.0 mi ESE 6.9 mph - N/A   Overcast
8:36 PM 48.2 °F - 35.6 °F 62% 29.35 in 10.0 mi ESE 9.2 mph - N/A   Overcast
8:56 PM 44.6 °F 39.7 °F 37.4 °F 76% 29.34 in 10.0 mi East 9.2 mph - N/A   Overcast
9:16 PM 44.6 °F 40.7 °F 37.4 °F 76% 29.34 in 10.0 mi East 6.9 mph - N/A   Overcast
9:36 PM 44.6 °F 40.2 °F 37.4 °F 76% 29.33 in 10.0 mi East 8.1 mph - N/A   Scattered Clouds
9:56 PM 42.8 °F 38.6 °F 37.4 °F 81% 29.33 in 10.0 mi East 6.9 mph - N/A   Scattered Clouds
10:16 PM 44.6 °F 40.7 °F 37.4 °F 76% 29.33 in 10.0 mi ESE 6.9 mph - N/A   Mostly Cloudy
10:36 PM 46.4 °F 42.4 °F 35.6 °F 66% 29.32 in 10.0 mi SE 8.1 mph - N/A   Mostly Cloudy
10:56 PM 46.4 °F 42.4 °F 35.6 °F 66% 29.32 in 10.0 mi SE 8.1 mph - N/A   Overcast
11:16 PM 46.4 °F 42.4 °F 35.6 °F 66% 29.32 in 10.0 mi ESE 8.1 mph - N/A   Mostly Cloudy
11:36 PM 44.6 °F 40.7 °F 37.4 °F 76% 29.32 in 10.0 mi ESE 6.9 mph - N/A   Scattered Clouds
11:56 PM 46.4 °F 43.5 °F 35.6 °F 66% 29.31 in 10.0 mi SE 5.8 mph - N/A   Scattered Clouds